FW4718 Weather Reports


Display with metric or nautical units.
time (UTC)temp
F
wind
direction
speed
MPH
gust
MPH
rain 1hr
in
rain 24hr
in
rain mn
in
humidity
%
barometer
mb
20260507133029 63 127 1.0 6.0 0.00 0.00 0.00 56 1015.4
20260507132510 63 188 2.0 7.0 0.00 0.00 0.00 53 1015.4
20260507132010 62 111 2.0 7.0 0.00 0.00 0.00 56 1015.5
20260507131532 62 134 1.0 7.0 0.00 0.00 0.00 55 1015.5
20260507131011 62 149 0.0 4.0 0.00 0.00 0.00 56 1015.5
20260507130514 62 0 0.0 4.0 0.00 0.00 0.00 54 1015.5
20260507130033 62 109 2.0 5.0 0.00 0.00 0.00 55 1015.7
20260507125512 62 120 1.0 8.0 0.00 0.00 0.00 54 1015.7
20260507125011 63 193 3.0 10.0 0.00 0.00 0.00 57 1015.7
20260507124529 63 190 3.0 10.0 0.00 0.00 0.00 57 1015.7
20260507124008 63 81 3.0 9.0 0.00 0.00 0.00 57 1015.6
20260507123509 63 144 3.0 8.0 0.00 0.00 0.00 57 1015.7
20260507123032 63 111 3.0 8.0 0.00 0.00 0.00 54 1015.8
20260507122509 63 0 1.0 9.0 0.00 0.00 0.00 54 1015.7
20260507122013 63 154 2.0 9.0 0.00 0.00 0.00 57 1015.8
20260507121533 62 126 4.0 9.0 0.00 0.00 0.00 58 1015.9
20260507121011 62 0 1.0 7.0 0.00 0.00 0.00 58 1015.8
20260507120510 62 214 2.0 11.0 0.00 0.00 0.00 62 1015.9
20260507120029 62 98 2.0 11.0 0.00 0.00 0.00 63 1015.9
20260507115514 62 156 1.0 5.0 0.00 0.00 0.00 59 1015.8
20260507115012 61 147 2.0 9.0 0.00 0.00 0.00 67 1015.8
20260507114528 61 113 2.0 9.0 0.00 0.00 0.00 67 1015.6
20260507114011 61 73 2.0 9.0 0.00 0.00 0.00 69 1015.7
20260507113511 61 123 2.0 8.0 0.00 0.00 0.00 72 1015.8
20260507113029 60 69 3.0 8.0 0.00 0.00 0.00 73 1015.9
20260507112513 59 113 3.0 6.0 0.00 0.00 0.00 75 1016.1
20260507112013 58 0 1.0 4.0 0.00 0.00 0.00 71 1016.1
20260507111530 57 17 1.0 4.0 0.00 0.00 0.00 74 1016.1
20260507111009 57 0 2.0 6.0 0.00 0.00 0.00 72 1016.2
20260507110510 56 192 1.0 6.0 0.00 0.00 0.00 74 1016.2
20260507110030 56 242 1.0 5.0 0.00 0.00 0.00 73 1016.2
20260507105510 56 0 1.0 5.0 0.00 0.00 0.00 74 1016.2
20260507105012 56 222 3.0 5.0 0.00 0.00 0.00 73 1016.2
20260507104527 55 119 2.0 3.0 0.00 0.00 0.00 74 1016.2
20260507104014 55 0 0.0 4.0 0.00 0.00 0.00 75 1016.4
20260507103512 55 0 0.0 4.0 0.00 0.00 0.00 76 1016.4
20260507103036 54 164 1.0 4.0 0.00 0.00 0.00 77 1016.4
20260507102513 54 182 1.0 4.0 0.00 0.00 0.00 77 1016.5
20260507102013 54 145 2.0 4.0 0.00 0.00 0.00 77 1016.5
20260507101530 53 204 2.0 4.0 0.00 0.00 0.00 77 1016.5
20260507101012 53 121 1.0 4.0 0.00 0.00 0.00 78 1016.5
20260507100512 52 0 1.0 6.0 0.00 0.00 0.00 78 1016.5
20260507100031 52 118 2.0 6.0 0.00 0.00 0.00 80 1016.5
20260507095513 52 129 1.0 4.0 0.00 0.00 0.00 80 1016.5
20260507095013 51 132 0.0 6.0 0.00 0.00 0.00 83 1016.6
20260507094532 51 126 2.0 6.0 0.00 0.00 0.00 84 1016.5
20260507094012 50 159 1.0 4.0 0.00 0.00 0.00 85 1016.5
20260507093515 50 0 0.0 4.0 0.00 0.00 0.00 86 1016.5
20260507093028 50 115 1.0 4.0 0.00 0.00 0.00 86 1016.5
20260507092513 49 0 0.0 4.0 0.00 0.00 0.00 87 1016.5
20260507092015 49 130 1.0 4.0 0.00 0.00 0.00 87 1016.5
20260507091538 49 105 1.0 4.0 0.00 0.00 0.00 89 1016.5
20260507091012 49 115 2.0 4.0 0.00 0.00 0.00 90 1016.5
20260507090512 48 113 0.0 4.0 0.00 0.00 0.00 89 1016.5
20260507090034 48 0 1.0 6.0 0.00 0.00 0.00 90 1016.5
20260507085513 48 106 2.0 6.0 0.00 0.00 0.00 90 1016.6
20260507085017 48 85 2.0 5.0 0.00 0.00 0.00 90 1016.6
20260507084540 47 101 2.0 6.0 0.00 0.00 0.00 91 1016.7
20260507084014 47 103 2.0 7.0 0.00 0.00 0.00 91 1016.5
20260507083517 47 119 2.0 7.0 0.00 0.00 0.00 91 1016.6
20260507083030 47 103 2.0 7.0 0.00 0.00 0.00 90 1016.5
20260507082512 47 134 2.0 7.0 0.00 0.00 0.00 91 1016.6
20260507082012 47 108 3.0 7.0 0.00 0.00 0.00 92 1016.6
20260507081621 47 107 2.0 6.0 0.00 0.00 0.00 93 1016.6
20260507081013 46 136 1.0 6.0 0.00 0.00 0.00 93 1016.5
20260507080510 46 90 1.0 6.0 0.00 0.00 0.00 94 1016.5
20260507080030 46 126 2.0 4.0 0.00 0.00 0.00 94 1016.4
20260507075510 46 114 2.0 4.0 0.00 0.00 0.00 94 1016.5
20260507075011 45 103 1.0 4.0 0.00 0.00 0.00 94 1016.4
20260507074528 45 114 0.0 4.0 0.00 0.00 0.00 95 1016.5
20260507074010 45 121 1.0 6.0 0.00 0.00 0.00 95 1016.5
20260507073513 45 90 1.0 6.0 0.00 0.00 0.00 95 1016.5
20260507073030 45 114 0.0 6.0 0.00 0.00 0.00 96 1016.5
20260507072511 44 0 1.0 7.0 0.00 0.00 0.00 96 1016.4
20260507072012 44 0 2.0 7.0 0.00 0.00 0.00 96 1016.3
20260507071530 44 109 2.0 6.0 0.00 0.00 0.00 96 1016.4
20260507071010 44 117 3.0 6.0 0.00 0.00 0.00 96 1016.4
20260507070512 44 108 2.0 6.0 0.00 0.00 0.00 96 1016.3
20260507070039 43 90 2.0 6.0 0.00 0.00 0.00 97 1016.3
20260507065510 43 97 3.0 6.0 0.00 0.00 0.00 97 1016.4
20260507065011 43 121 2.0 6.0 0.00 0.00 0.00 97 1016.3
20260507064529 43 113 1.0 6.0 0.00 0.00 0.00 97 1016.3
20260507064010 43 123 2.0 6.0 0.00 0.00 0.00 97 1016.2
20260507063511 42 92 1.0 7.0 0.00 0.00 0.00 97 1016.2
20260507063033 42 102 2.0 7.0 0.00 0.00 0.00 97 1016.2
20260507062512 42 104 2.0 7.0 0.00 0.00 0.00 97 1016.3
20260507062012 42 119 2.0 4.0 0.00 0.00 0.00 97 1016.2
20260507061530 42 126 1.0 6.0 0.00 0.00 0.00 97 1016.2
20260507061012 41 126 2.0 6.0 0.00 0.00 0.00 97 1016.2
20260507060513 41 105 2.0 3.0 0.00 0.00 0.00 97 1016.1
20260507060028 41 107 0.0 6.0 0.00 0.00 0.00 97 1016.2
20260507055513 41 107 1.0 6.0 0.00 0.00 0.00 97 1016.1
20260507055016 41 107 2.0 4.0 0.00 0.00 0.00 97 1016.1
20260507054532 40 119 1.0 4.0 0.00 0.00 0.00 97 1016.1
20260507054017 40 111 2.0 4.0 0.00 0.00 0.00 97 1016.0
20260507053514 40 83 1.0 4.0 0.00 0.00 0.00 97 1016.1
20260507053033 39 86 1.0 3.0 0.00 0.00 0.00 97 1016.0
20260507052513 39 0 0.0 0.0 0.00 0.00 0.00 97 1016.1
20260507052012 39 0 0.0 0.0 0.00 0.00 0.00 97 1016.0
20260507051528 39 0 0.0 0.0 0.00 0.00 0.00 97 1016.1
20260507051012 38 0 0.0 0.0 0.00 0.00 0.00 96 1016.1
20260507050517 38 0 0.0 0.0 0.00 0.00 0.00 96 1016.1
20260507050042 38 0 0.0 0.0 0.00 0.00 0.00 97 1016.1
20260507045513 37 0 0.0 0.0 0.00 0.00 0.00 96 1016.1
20260507045012 37 0 0.0 0.0 0.00 0.00 0.00 96 1016.0
20260507044529 37 0 0.0 0.0 0.00 0.00 0.00 96 1016.0
20260507044013 37 0 0.0 0.0 0.00 0.00 0.00 95 1016.0
20260507043513 37 0 0.0 0.0 0.00 0.00 0.00 95 1016.0
20260507043030 37 0 0.0 0.0 0.00 0.00 0.00 95 1015.9
20260507042513 37 0 0.0 0.0 0.00 0.00 0.00 95 1015.9
20260507042012 37 0 0.0 0.0 0.00 0.00 0.00 95 1015.9
20260507041528 37 0 0.0 0.0 0.00 0.00 0.00 95 1015.9
20260507041013 37 0 0.0 0.0 0.00 0.00 0.00 94 1015.9
20260507040513 37 0 0.0 0.0 0.00 0.00 0.00 94 1015.8
20260507040031 37 0 0.0 0.0 0.00 0.00 0.00 94 1015.9
20260507035512 37 0 0.0 0.0 0.00 0.00 0.00 94 1015.8
20260507035013 37 0 0.0 0.0 0.00 0.00 0.00 94 1015.8
20260507034531 37 0 0.0 0.0 0.00 0.00 0.00 94 1015.8
20260507034012 37 0 0.0 0.0 0.00 0.00 0.00 94 1015.8
20260507033513 37 0 0.0 0.0 0.00 0.00 0.00 93 1015.8
20260507033028 37 0 0.0 0.0 0.00 0.00 0.00 93 1015.9
20260507032513 37 0 0.0 0.0 0.00 0.00 0.00 93 1015.9
20260507032012 37 0 0.0 0.0 0.00 0.00 0.00 93 1015.9
20260507031529 38 0 0.0 0.0 0.00 0.00 0.00 93 1015.9
20260507031015 38 0 0.0 0.0 0.00 0.00 0.00 93 1015.9
20260507030513 38 0 0.0 0.0 0.00 0.00 0.00 93 1016.1
20260507030031 39 0 0.0 0.0 0.00 0.00 0.00 94 1016.1
20260507025512 39 0 0.0 0.0 0.00 0.00 0.00 94 1016.0
20260507025013 39 0 0.0 0.0 0.00 0.00 0.00 94 1016.1
20260507024535 39 0 0.0 0.0 0.00 0.00 0.00 94 1016.1
20260507024012 39 0 0.0 0.0 0.00 0.00 0.00 94 1016.0
20260507023515 39 0 0.0 0.0 0.00 0.00 0.00 94 1016.0
20260507023028 40 0 0.0 0.0 0.00 0.00 0.00 94 1016.0
20260507022512 40 0 0.0 0.0 0.00 0.00 0.00 94 1015.9
20260507022013 40 0 0.0 0.0 0.00 0.00 0.00 94 1015.9
20260507021535 40 0 0.0 0.0 0.00 0.00 0.00 94 1015.9
20260507021012 40 0 0.0 0.0 0.00 0.00 0.00 94 1016.0
20260507020512 40 0 0.0 0.0 0.00 0.00 0.00 93 1015.8
20260507020030 40 0 0.0 0.0 0.00 0.00 0.00 94 1015.9
20260507015512 40 0 0.0 0.0 0.00 0.00 0.00 94 1016.0
20260507015015 40 0 0.0 0.0 0.00 0.00 0.00 93 1016.0
20260507014530 40 0 0.0 0.0 0.00 0.00 0.00 94 1016.0
20260507014012 41 0 0.0 2.0 0.00 0.00 0.00 94 1016.0
20260507013511 41 0 0.0 2.0 0.00 0.00 0.00 94 1015.9
20260507013033 41 115 0.0 3.0 0.00 0.00 0.00 94 1015.9
20260507012512 41 115 1.0 3.0 0.00 0.00 0.00 94 1016.0
20260507012014 41 0 0.0 3.0 0.00 0.00 0.00 94 1016.0
20260507011533 41 0 0.0 4.0 0.00 0.00 0.00 94 1016.0
20260507011011 41 116 1.0 4.0 0.00 0.00 0.00 93 1016.0
20260507010515 41 113 1.0 3.0 0.00 0.00 0.00 93 1015.8
20260507010040 41 113 2.0 4.0 0.00 0.00 0.00 94 1016.0
20260507005513 41 101 1.0 4.0 0.00 0.00 0.00 94 1015.9
20260507005017 41 105 2.0 5.0 0.00 0.00 0.00 93 1016.0
20260507004529 41 121 2.0 5.0 0.00 0.00 0.00 94 1015.9
20260507004012 42 78 2.0 6.0 0.00 0.00 0.00 94 1015.9
20260507003514 42 80 2.0 6.0 0.00 0.00 0.00 94 1016.0
20260507003029 42 61 2.0 7.0 0.00 0.00 0.00 94 1015.9
20260507002514 42 88 3.0 8.0 0.00 0.00 0.00 94 1015.9
20260507002013 42 86 3.0 10.0 0.00 0.00 0.00 94 1016.0
20260507001544 42 81 3.0 10.0 0.00 0.00 0.00 94 1015.8
20260507001011 41 162 4.0 9.0 0.00 0.00 0.00 95 1016.0
20260507000512 41 86 3.0 11.0 0.00 0.00 0.00 95 1016.0
20260507000032 41 50 4.0 11.0 0.00 0.00 0.00 95 1016.0
20260506235512 41 121 4.0 9.0 0.00 0.00 0.00 95 1016.1
20260506235012 41 55 4.0 9.0 0.00 0.00 0.00 95 1016.2
20260506234529 40 84 4.0 9.0 0.00 0.00 0.00 95 1016.2
20260506234012 40 61 3.0 7.0 0.00 0.00 0.00 95 1016.1
20260506233512 39 74 2.0 6.0 0.00 0.00 0.00 94 1016.0
20260506233030 39 59 2.0 6.0 0.00 0.00 0.00 93 1016.2
20260506232512 38 66 2.0 4.0 0.00 0.00 0.00 93 1016.2
20260506232012 38 60 1.0 4.0 0.00 0.00 0.00 92 1016.2
20260506231534 38 65 2.0 4.0 0.00 0.00 0.00 91 1016.1
20260506231012 38 71 2.0 4.0 0.00 0.00 0.00 91 1016.1
20260506230511 38 74 2.0 4.0 0.00 0.00 0.00 91 1016.0
20260506230031 38 73 1.0 4.0 0.00 0.00 0.00 90 1016.1
20260506225512 38 0 0.0 3.0 0.00 0.00 0.00 89 1016.1
20260506225012 38 0 0.0 3.0 0.00 0.00 0.00 89 1016.2
20260506224529 38 81 1.0 3.0 0.00 0.00 0.00 89 1016.1
20260506224011 39 0 0.0 0.0 0.00 0.00 0.00 88 1016.1
20260506223511 39 0 0.0 0.0 0.00 0.00 0.00 88 1016.2
20260506223030 39 0 0.0 0.0 0.00 0.00 0.00 88 1016.2
20260506222512 40 0 0.0 0.0 0.00 0.00 0.00 88 1016.1
20260506222017 40 0 0.0 2.0 0.00 0.00 0.00 88 1016.1
20260506221530 40 0 0.0 2.0 0.00 0.00 0.00 88 1016.0
20260506221017 41 0 0.0 2.0 0.00 0.00 0.00 89 1016.0
20260506220513 41 0 0.0 2.0 0.00 0.00 0.00 89 1015.9
20260506220031 41 0 0.0 2.0 0.00 0.00 0.00 89 1016.0
20260506215509 41 0 0.0 4.0 0.00 0.00 0.00 89 1015.8
20260506215012 41 0 1.0 4.0 0.00 0.00 0.00 89 1015.8
20260506214531 42 72 1.0 3.0 0.00 0.00 0.00 89 1015.7
20260506214012 42 76 1.0 3.0 0.00 0.00 0.00 88 1015.7
20260506213514 42 75 1.0 4.0 0.00 0.00 0.00 88 1015.7
20260506213040 42 76 2.0 4.0 0.00 0.00 0.00 86 1015.6
20260506212512 42 69 0.0 3.0 0.00 0.00 0.00 85 1015.6
20260506212010 43 70 0.0 3.0 0.00 0.00 0.00 85 1015.6
20260506211539 43 0 0.0 3.0 0.00 0.00 0.00 85 1015.5
20260506211013 43 0 1.0 3.0 0.00 0.00 0.00 86 1015.5
20260506210512 44 70 0.0 3.0 0.00 0.00 0.00 86 1015.5
20260506210039 44 0 0.0 4.0 0.00 0.00 0.00 86 1015.4
20260506205511 44 60 1.0 4.0 0.00 0.00 0.00 85 1015.4
20260506205013 44 59 2.0 6.0 0.00 0.00 0.00 85 1015.4
20260506204533 44 95 2.0 6.0 0.00 0.00 0.00 85 1015.3
20260506204013 45 64 3.0 6.0 0.00 0.00 0.00 84 1015.3
20260506203516 45 72 3.0 7.0 0.00 0.00 0.00 84 1015.3
20260506203029 45 57 3.0 9.0 0.00 0.00 0.00 84 1015.3
20260506202512 45 68 3.0 9.0 0.00 0.00 0.00 83 1015.2
20260506202012 45 67 2.0 7.0 0.00 0.00 0.00 83 1015.2
20260506201536 46 110 2.0 10.0 0.00 0.00 0.00 82 1015.2
20260506201009 46 110 3.0 10.0 0.00 0.00 0.00 82 1015.2
20260506200508 46 68 2.0 6.0 0.00 0.00 0.00 81 1015.1
20260506200032 46 95 2.0 6.0 0.00 0.00 0.00 81 1015.0
20260506195511 47 0 1.0 7.0 0.00 0.00 0.00 80 1014.9
20260506195013 47 69 3.0 7.0 0.00 0.00 0.00 80 1015.0
20260506194528 47 92 2.0 6.0 0.00 0.00 0.00 80 1015.0
20260506194012 47 69 2.0 5.0 0.00 0.00 0.00 79 1015.0
20260506193512 48 65 2.0 5.0 0.00 0.00 0.00 78 1014.9
20260506193042 48 55 2.0 5.0 0.00 0.00 0.00 78 1014.7
20260506192514 48 38 2.0 6.0 0.00 0.00 0.00 78 1014.7
20260506192013 48 102 3.0 9.0 0.00 0.00 0.00 77 1014.7
20260506191531 49 51 3.0 9.0 0.00 0.00 0.00 76 1014.6
20260506191012 49 56 3.0 8.0 0.00 0.00 0.00 76 1014.6
20260506190508 49 77 3.0 10.0 0.00 0.00 0.00 75 1014.6
20260506190028 50 62 3.0 10.0 0.00 0.00 0.00 75 1014.6
20260506185511 50 82 4.0 11.0 0.00 0.00 0.00 74 1014.6
20260506185009 50 103 5.0 11.0 0.00 0.00 0.00 74 1014.7
20260506184532 50 46 4.0 11.0 0.00 0.00 0.00 74 1014.6
20260506184009 51 101 6.0 10.0 0.00 0.00 0.00 74 1014.6
20260506183511 51 73 3.0 8.0 0.00 0.00 0.00 73 1014.6
20260506183029 51 85 4.0 12.0 0.00 0.00 0.00 72 1014.5
20260506182511 51 121 5.0 12.0 0.00 0.00 0.00 71 1014.5
20260506182017 52 69 5.0 10.0 0.00 0.00 0.00 70 1014.6
20260506181540 52 129 4.0 9.0 0.00 0.00 0.00 70 1014.6
20260506181009 52 69 4.0 9.0 0.00 0.00 0.00 69 1014.6
20260506180514 52 55 3.0 9.0 0.00 0.00 0.00 68 1014.5
20260506180031 52 88 3.0 10.0 0.00 0.00 0.00 68 1014.4
20260506175514 53 88 2.0 10.0 0.00 0.00 0.00 67 1014.3
20260506175008 53 71 3.0 10.0 0.00 0.00 0.00 66 1014.3
20260506174533 53 119 3.0 8.0 0.00 0.00 0.00 66 1014.3
20260506174014 53 86 2.0 8.0 0.00 0.00 0.00 67 1014.3
20260506173512 53 76 3.0 14.0 0.00 0.00 0.00 66 1014.3
20260506173050 53 75 1.0 14.0 0.00 0.00 0.00 66 1014.2
20260506172508 54 74 4.0 9.0 0.00 0.00 0.00 65 1014.3
20260506172012 54 67 2.0 8.0 0.00 0.00 0.00 64 1014.2
20260506171538 55 91 2.0 12.0 0.00 0.00 0.00 64 1014.2
20260506171011 55 111 4.0 12.0 0.00 0.00 0.00 62 1014.3
20260506170515 55 72 6.0 12.0 0.00 0.00 0.00 60 1014.3
20260506170038 56 43 3.0 9.0 0.00 0.00 0.00 58 1014.3
20260506165512 56 63 2.0 6.0 0.00 0.00 0.00 59 1014.3
20260506165009 56 76 2.0 6.0 0.00 0.00 0.00 57 1014.2
20260506164530 57 27 2.0 7.0 0.00 0.00 0.00 57 1014.2
20260506164010 57 100 2.0 7.0 0.00 0.00 0.00 58 1014.2
20260506163509 57 62 3.0 8.0 0.00 0.00 0.00 56 1014.0
20260506163033 58 80 2.0 8.0 0.00 0.00 0.00 55 1014.1
20260506162509 58 75 2.0 8.0 0.00 0.00 0.00 55 1014.0
20260506162015 58 63 1.0 8.0 0.00 0.00 0.00 56 1014.1
20260506161528 59 67 2.0 8.0 0.00 0.00 0.00 55 1014.1
20260506161013 58 61 3.0 8.0 0.00 0.00 0.00 58 1014.0
20260506160512 58 57 3.0 9.0 0.00 0.00 0.00 60 1014.1
20260506160028 57 24 2.0 9.0 0.00 0.00 0.00 58 1014.1
20260506155512 57 119 2.0 8.0 0.00 0.00 0.00 62 1014.1
20260506155009 56 79 2.0 8.0 0.00 0.00 0.00 58 1014.0
20260506154529 57 72 3.0 10.0 0.00 0.00 0.00 60 1014.1
20260506154014 57 63 3.0 10.0 0.00 0.00 0.00 57 1014.2
20260506153516 57 75 4.0 9.0 0.00 0.00 0.00 58 1014.1
20260506153030 57 76 4.0 9.0 0.00 0.00 0.00 59 1014.1
20260506152509 57 48 3.0 11.0 0.00 0.00 0.00 59 1014.0
20260506152011 57 128 4.0 11.0 0.00 0.00 0.00 57 1014.1
20260506151531 57 96 3.0 11.0 0.00 0.00 0.00 57 1014.2
20260506151011 57 103 3.0 11.0 0.00 0.00 0.00 60 1014.1
20260506150511 57 76 2.0 5.0 0.00 0.00 0.00 59 1014.2
20260506150030 57 0 1.0 7.0 0.00 0.00 0.00 58 1014.2
20260506145516 57 74 2.0 8.0 0.00 0.00 0.00 58 1014.2
20260506145013 56 34 3.0 8.0 0.00 0.00 0.00 60 1014.3
20260506144532 56 41 2.0 16.0 0.00 0.00 0.00 59 1014.2
20260506144011 56 60 2.0 16.0 0.00 0.00 0.00 59 1014.2
20260506143508 56 110 2.0 16.0 0.00 0.00 0.00 54 1013.8
20260506143029 56 115 1.0 5.0 0.00 0.00 0.00 52 1014.2
20260506142511 56 0 0.0 5.0 0.00 0.00 0.00 57 1014.3
20260506142013 56 22 1.0 5.0 0.00 0.00 0.00 57 1014.3
20260506141530 57 10 1.0 10.0 0.00 0.00 0.00 55 1014.3
20260506141014 57 13 3.0 10.0 0.00 0.00 0.00 56 1014.3
20260506140511 57 32 4.0 10.0 0.00 0.00 0.00 58 1014.4
20260506140034 56 111 3.0 8.0 0.00 0.00 0.00 57 1014.6
20260506135511 56 125 2.0 8.0 0.00 0.00 0.00 58 1014.5
20260506135012 57 56 2.0 6.0 0.00 0.00 0.00 56 1014.4
20260506134529 57 85 1.0 7.0 0.00 0.00 0.00 53 1014.5
20260506134011 58 30 2.0 10.0 0.00 0.00 0.00 56 1014.5
20260506133513 57 79 4.0 10.0 0.00 0.00 0.00 58 1014.5